TimeMDT,TemperatureF,Dew PointF,Humidity,Sea Level PressureIn,VisibilityMPH,Wind Direction,Wind SpeedMPH,Gust SpeedMPH,PrecipitationIn,Events,Conditions,WindDirDegrees,DateUTC
12:52 AM,36.0,21.9,57,30.13,10.0,SW,5.8,-,N/A,,Clear,220,2012-10-29 06:52:00
1:52 AM,35.1,21.9,59,30.12,10.0,SSW,6.9,-,N/A,,Clear,210,2012-10-29 07:52:00
2:52 AM,32.0,21.9,66,30.13,10.0,South,4.6,-,N/A,,Clear,190,2012-10-29 08:52:00
3:52 AM,33.1,23.0,66,30.11,10.0,South,8.1,-,N/A,,Clear,190,2012-10-29 09:52:00
4:52 AM,32.0,21.9,66,30.11,10.0,SSW,9.2,-,N/A,,Clear,200,2012-10-29 10:52:00
5:52 AM,33.1,21.9,64,30.12,10.0,South,10.4,-,N/A,,Clear,190,2012-10-29 11:52:00
6:52 AM,34.0,23.0,64,30.15,10.0,South,9.2,-,N/A,,Clear,190,2012-10-29 12:52:00
7:52 AM,34.0,21.9,61,30.17,10.0,SSW,11.5,-,N/A,,Clear,200,2012-10-29 13:52:00
8:52 AM,36.0,23.0,59,30.20,10.0,South,9.2,-,N/A,,Clear,190,2012-10-29 14:52:00
9:52 AM,48.0,25.0,41,30.19,10.0,South,10.4,-,N/A,,Clear,170,2012-10-29 15:52:00
10:52 AM,57.9,24.1,27,30.16,10.0,SSW,15.0,-,N/A,,Clear,200,2012-10-29 16:52:00
11:52 AM,63.0,24.1,23,30.16,10.0,SSW,13.8,-,N/A,,Clear,200,2012-10-29 17:52:00
12:52 PM,66.0,23.0,20,30.15,10.0,South,12.7,-,N/A,,Clear,180,2012-10-29 18:52:00
1:52 PM,70.0,21.9,16,30.11,10.0,South,11.5,-,0.00,,Clear,180,2012-10-29 19:52:00
2:52 PM,71.1,23.0,16,30.10,10.0,South,6.9,-,N/A,,Clear,190,2012-10-29 20:52:00
3:52 PM,73.0,23.0,15,30.09,10.0,Calm,Calm,-,N/A,,Clear,0,2012-10-29 21:52:00
4:52 PM,73.0,24.1,16,30.09,10.0,NE,3.5,-,N/A,,Clear,50,2012-10-29 22:52:00
5:52 PM,70.0,25.0,18,30.09,10.0,NNE,6.9,-,N/A,,Clear,30,2012-10-29 23:52:00
6:52 PM,57.0,25.0,29,30.13,10.0,North,4.6,-,N/A,,Clear,350,2012-10-30 00:52:00
7:52 PM,50.0,24.1,36,30.17,10.0,WNW,4.6,-,N/A,,Clear,300,2012-10-30 01:52:00
8:52 PM,46.0,24.1,42,30.17,10.0,Calm,Calm,-,N/A,,Clear,0,2012-10-30 02:52:00
9:52 PM,48.0,25.0,41,30.15,10.0,West,8.1,-,N/A,,Clear,280,2012-10-30 03:52:00
10:52 PM,42.1,24.1,49,30.15,10.0,Calm,Calm,-,N/A,,Clear,0,2012-10-30 04:52:00
11:52 PM,41.0,24.1,51,30.15,10.0,West,6.9,-,N/A,,Clear,260,2012-10-30 05:52:00